Red Bluff, CA

1:20 AM PST on December 11, 2019 (GMT -0800)
Red Bluff Municipal

Weather History for KRBL - October, 2019

Change the Weather History Date:

Friday, October 25, 2019

  Actual Average Record
Temperature  
Mean Temperature 70 °F -  
Max Temperature 88 °F 75 °F 94 °F (1988)
Min Temperature 51 °F 50 °F 36 °F (1945)
Cooling Degree Days 4    
Growing Degree Days 20 (Base 50)    
Moisture  
Dew Point 28 °F    
Average Humidity 27    
Maximum Humidity 37    
Minimum Humidity 4    
Precipitation  
Precipitation 0.00 in - - ()
Sea Level Pressure  
Sea Level Pressure 30.04 in    
Wind  
Wind Speed 5 mph (NW)    
Max Wind Speed 10 mph    
Max Gust Speed -    
Visibility 6 miles    
Events      
Averages and records for this station are not official NWS values.
T = Trace of Precipitation, MM = Missing Value Source: NWS Daily Summary

Daily Weather History Graph

Daily Weather History Graph

Search for Another Location

Airport or City:

Astronomy

Oct. 25, 2019 Rise Set
Actual Time 7:30 AM PDT 6:15 PM PDT
Civil Twilight 7:02 AM PDT 6:42 PM PDT
Nautical Twilight 6:30 AM PDT 7:14 PM PDT
Astronomical Twilight 5:59 AM PDT 7:46 PM PDT
Moon 4:19 AM PDT (10/25) 5:20 PM PDT (10/25)
Length of Visible Light 11h 40m
Length of Day
10h 44m
Waning Crescent, 8% of the Moon is Illuminated
Oct 25
Waning Crescent
Oct 27
New
Nov 4
First Quarter
Nov 12
Full
Nov 19
Last Quarter

Hourly Weather History & Observations

Time (PDT) Temp. Dew Point Humidity Pressure Visibility Wind Dir Wind Speed Gust Speed Precip Events Conditions
12:54 AM 55.9 °F 25.0 °F 30% 30.11 in 10.0 mi NW 4.6 mph - N/A   Clear
1:54 AM 55.0 °F 25.0 °F 31% 30.11 in 10.0 mi NW 5.8 mph - N/A   Clear
2:54 AM 55.9 °F 24.1 °F 29% 30.11 in 10.0 mi NW 6.9 mph - N/A   Clear
3:54 AM 54.0 °F 25.0 °F 33% 30.10 in 10.0 mi WNW 6.9 mph - N/A   Clear
4:54 AM 52.0 °F 25.0 °F 35% 30.11 in 10.0 mi NNW 5.8 mph - N/A   Clear
5:54 AM 53.1 °F 25.0 °F 34% 30.12 in 10.0 mi NW 8.1 mph - N/A   Clear
6:54 AM 54.0 °F 24.1 °F 31% 30.13 in 10.0 mi NNW 9.2 mph - N/A   Clear
7:54 AM 55.0 °F 25.0 °F 31% 30.13 in 10.0 mi NW 6.9 mph - N/A   Clear
8:54 AM 60.1 °F 26.1 °F 27% 30.14 in 10.0 mi NNW 4.6 mph - N/A   Clear
9:54 AM 69.1 °F 26.1 °F 20% 30.14 in 10.0 mi North 4.6 mph - N/A   Clear
10:54 AM 75.0 °F 23.0 °F 14% 30.13 in 10.0 mi North 10.4 mph - N/A   Clear
11:54 AM 79.0 °F 24.1 °F 13% 30.11 in 10.0 mi NNE 3.5 mph - N/A   Clear
2:54 PM 87.1 °F 19.9 °F 8% 30.03 in 10.0 mi SSE 3.5 mph - N/A   Clear
3:54 PM 87.1 °F 21.9 °F 9% 30.01 in 10.0 mi SSE 5.8 mph - N/A   Clear
4:54 PM 86.0 °F 23.0 °F 10% 30.00 in 10.0 mi SE 5.8 mph - N/A   Clear
5:54 PM 81.0 °F 30.0 °F 16% 29.99 in 10.0 mi SE 4.6 mph - N/A   Clear
6:54 PM 73.9 °F 35.1 °F 24% 29.98 in 10.0 mi SSE 5.8 mph - N/A   Clear
7:22 PM 69.1 °F 35.1 °F 29% 29.98 in 1.5 mi Calm Calm - N/A   Haze
7:30 PM 68.0 °F 35.1 °F 30% 29.98 in 1.0 mi Calm Calm - N/A   Haze
7:49 PM 66.2 °F 33.8 °F 30% 29.99 in 2.0 mi North 3.5 mph - N/A   Haze
7:54 PM 64.0 °F 34.0 °F 33% 29.99 in 4.0 mi Calm Calm - N/A   Haze
7:58 PM 63.0 °F 34.0 °F 34% 29.99 in 1.8 mi NW 3.5 mph - N/A   Haze
8:05 PM 62.1 °F 32.0 °F 32% 30.00 in 0.8 mi NW 4.6 mph - N/A   Haze
8:54 PM 61.0 °F 30.0 °F 31% 30.00 in 1.2 mi WNW 4.6 mph - N/A   Haze
9:04 PM 61.0 °F 30.0 °F 31% 30.00 in 0.5 mi WNW 4.6 mph - N/A   Haze
9:16 PM 59.0 °F 30.0 °F 33% 30.00 in 1.8 mi WNW 3.5 mph - N/A   Haze
9:18 PM 59.0 °F 30.0 °F 33% 30.00 in 3.0 mi NW 4.6 mph - N/A   Haze
9:46 PM 57.9 °F 30.0 °F 35% 30.00 in 2.5 mi WNW 4.6 mph - N/A   Haze
9:54 PM 57.9 °F 30.0 °F 35% 30.00 in 3.0 mi NW 4.6 mph - N/A   Haze
10:25 PM 57.9 °F 28.9 °F 33% 30.00 in 2.0 mi WNW 4.6 mph - N/A   Haze
10:41 PM 55.9 °F 30.0 °F 37% 29.99 in 10.0 mi WNW 4.6 mph - N/A   Clear
10:51 PM 55.4 °F 28.4 °F 36% 29.99 in 1.8 mi WNW 4.6 mph - N/A   Haze
10:54 PM 55.0 °F 28.9 °F 37% 29.99 in 1.5 mi WNW 5.8 mph - N/A   Haze
11:04 PM 55.9 °F 28.9 °F 36% 30.00 in 2.0 mi WNW 6.9 mph - N/A   Haze
11:22 PM 57.0 °F 28.9 °F 34% 30.00 in 1.2 mi NW 6.9 mph - N/A   Haze
11:40 PM 55.0 °F 28.0 °F 35% 30.00 in 2.0 mi NNW 5.8 mph - N/A   Haze
11:54 PM 57.0 °F 28.9 °F 34% 29.99 in 2.5 mi NW 6.9 mph - N/A   Haze